Location: Laas
(43.4693°N, 0.3073°E)
Time: 15:55:47
(UTC+00:00)

Okean-O - Pass Details

Date: 25 October 2020
Orbit: 638 x 641 km, 98.2° (Epoch: 24 November)

Event Time Altitude Azimuth Distance (km) Brightness Sun altitude
Rises 18:01:16 0° 151° (SSE) 2,934 5.8 -11.8°
Reaches altitude 10° 18:03:30 10° 146° (SE) 2,029 4.9 -12.3°
Maximum altitude 18:07:46 49° 72° (ENE) 833 2.8 -13.0°
Drops below altitude 10° 18:12:03 10° 358° (N) 2,043 5.2 -13.8°
Sets 18:14:18 0° 353° (N) 2,956 6.1 -14.2°
